Hourly Data Report for January 15, 2022

OTTAWA INTL A
ONTARIO
Current Station Operator: NAVCAN

45°19'00.000" N
75°40'00.000" W
114.90 m
6106001
71628
YOW

Download Data

Hourly Data (January 2022)
Hourly Data Report for January 15, 2022
TIME
LST
Temp Definition
°C
Dew Point Definition
°C
Rel Hum Definition
%
Precip. Amount Definition
mm

Wind Dir Definition
10's deg

Wind Spd Definition
km/h
Visibility Definition
km
Stn Press Definition
kPa
Hmdx Definition


Wind Chill Definition


Weather Definition


00:00 -23.1 -29.2 58   36 26 24.1 101.60   -36 LegendNANA
01:00 -23.7 -29.6 60   34 17 24.1 101.59   -34 Clear
02:00 -24.2 -29.8 61   34 22 24.1 101.65   -36 LegendNANA
03:00 -25.2 -29.8 66   31 19 24.1 101.70   -37 LegendNANA
04:00 -25.3 -30.1 65   32 19 24.1 101.75   -37 Clear
05:00 -25.9 -30.4 67   31 21 24.1 101.78   -38 LegendNANA
06:00 -26.5 -30.8 68   31 17 24.1 101.85   -38 LegendNANA
07:00 -26.6 -31.1 67   31 16 24.1 101.92   -38 Clear
08:00 -26.6 -31.1 67   32 17 24.1 101.98   -38 LegendNANA
09:00 -25.8 -31.0 63   31 17 24.1 102.06   -37 LegendNANA
10:00 -25.0 -30.9 59   30 17 24.1 102.07   -36 Clear
11:00 -23.9 -30.3 57   31 13 24.1 102.01   -33 LegendNANA
12:00 -22.6 -29.6 54   29 16 24.1 101.90   -33 LegendNANA
13:00 -21.5 -28.9 52   27 17 24.1 101.93   -32 Clear
14:00 -20.2 -28.5 49   27 20 24.1 101.88   -31 LegendNANA
15:00 -20.0 -27.7 51   25 20 24.1 101.83   -30 LegendNANA
16:00 -20.9 -28.1 53   24 18 24.1 101.84   -31 Clear
17:00 -22.1 -28.2 58   25 13 24.1 101.84   -31 LegendNANA
18:00 -21.9 -28.0 59   27 13 24.1 101.86   -31 LegendNANA
19:00 -23.3 -28.7 62   26 11 24.1 101.84   -32 Clear
20:00 -23.1 -28.7 61   24 10 24.1 101.85   -31 LegendNANA
21:00 -23.8 -28.7 64   26 10 24.1 101.81   -32 LegendNANA
22:00 -23.2 -28.8 61   25 5 24.1 101.78   -28 Clear
23:00 -25.0 -29.6 66   20 7 24.1 101.82   -31 LegendNANA

Notes on Data Quality.

Legend

  • E = Estimated
  • M = Missing
  • NA = Not Available*
  • [empty] = Indicates an unobserved value
Date modified: